www.pogodaiklimat.ru
ПОГОДА в Траверс-Сити
Время
и дата
22:53 13.01
23:53 13.01
00:31 14.01
00:53 14.01
01:48 14.01
01:53 14.01
02:53 14.01
03:53 14.01
04:53 14.01
05:53 14.01
06:51 14.01
06:53 14.01
07:36 14.01
07:53 14.01
08:53 14.01
09:53 14.01
10:53 14.01
11:53 14.01
12:53 14.01
13:37 14.01
13:53 14.01
14:53 14.01
15:53 14.01
16:53 14.01
17:53 14.01
18:37 14.01
18:53 14.01
19:53 14.01
20:53 14.01
21:53 14.01
22:28 14.01
22:53 14.01
23:35 14.01
23:53 14.01
00:10 15.01
00:53 15.01
01:39 15.01
01:53 15.01
02:15 15.01
02:53 15.01
03:53 15.01
04:53 15.01
05:53 15.01
06:53 15.01
07:13 15.01
07:53 15.01
08:18 15.01
08:53 15.01
Ветер
(напр.,м/с)
Видим. Явления Облачность Т
(С)
Тd
(С)
f
(%)
Тe
(С)
Тes
(С)
Комфортность P
(гПа)
Po
(гПа)
Тmin
(С)
Tmax
(С)
R
(мм)
R24
(мм)
S
(см)
Ю 1 10 км мгла 10/10 330 м +2.2 -0.6 82 -2 -2 1005.5 982.2
Ю 1 10 км дымка 10/10 300 м +1.7 -0.6 85 -3 -3 1005.7 982.5
Ю 1 10 км дымка 10/10 270 м +1.7 -0.6 85 -2 -2 982.5
ЮВ 1 10 км дымка 10/10 270 м +1.7 -0.6 85 -2 -2 1005.3 982.2 -1.7 +2.2
штиль 0 10 км дымка 10/10 300 м +2.0 -1.0 80 +1 +1 982.2
штиль 0 10 км дымка 10/10 300 м +1.7 -0.6 85 +1 +1 1005.1 982.2
В 1 10 км дымка 10/10 360 м +1.7 -0.6 85 -2 -2 1005.0 981.9
В 1 11 км 10/10 360 м +1.7 -1.1 82 -2 -2 1004.9 981.9
В 1 11 км 10/10 330 м +1.7 -1.1 82 -2 -2 1004.9 981.9
штиль 0 11 км 10/10 360 м +1.7 -0.6 85 +1 +1 1005.0 981.9
штиль 0 11 км 10/10 450 м +2.0 -1.0 80 +1 +1 982.5
штиль 0 11 км 10/10 450 м +1.7 -0.6 85 +1 +1 1005.7 982.5 +1.1 +1.7
В 1 10 км дымка 10/10 420 м +1.7 -0.6 85 -2 -2 981.9
В 1 10 км дымка 10/10 420 м +1.7 -0.6 85 -3 -3 1004.9 981.5
В 1 8 км дымка 10/10 360 м +1.7 -0.6 85 -3 -3 1005.3 982.2
В 3 10 км дымка 10/10 300 м +1.7 -1.1 82 -4 -4 1005.3 982.2
ЮВ 2
{4}
10 км дымка 10/10 330 м +2.2 -1.1 79 -3 -3 1005.6 982.5
ЮВ 2
{4}
13 км 10/10 360 м +2.2 -1.1 79 -3 -3 1005.2 982.2
ЮВ 2 13 км 10/10 390 м +2.8 -0.6 78 -2 -2 1004.0 980.9 +1.1 +2.8
ЮВ 1 14 км 10/10 450 м +3.3 -0.6 76 +1 +1 980.5
ЮВ 2
{4}
14 км 10/10 480 м +3.9 -0.6 72 -1 -1 1003.1 979.9
ЮВ 2 16 км 10/10 540 м +4.4 -0.6 70 0 0 1002.5 979.5
ЮВ 1 16 км 10/10 570 м +4.4 -0.6 70 +1 +1 1002.9 979.9
В 2 14 км 10/5 600 м
[Ci]
+3.9 -0.6 72 0 0 1002.9 979.9
В 1 16 км 10/8 510 м
[Ac]
+3.3 -0.6 76 0 0 1003.0 979.9
В 2
{4}
13 км 10/10 390 м +2.8 0.0 82 -2 -2 979.9
В 1 13 км 10/10 390 м +2.8 -0.6 78 0 0 1002.9 979.9 +2.8 +5.0
нст 1 11 км 10/10 390 м +2.8 -0.6 78 -1 -1 1002.6 979.5
В 1 11 км 10/10 390 м +2.8 0.0 82 -1 -1 1002.6 979.5
В 2
{4}
10 км мгла 8/8 420 м +2.8 0.0 82 -2 -2 1002.5 979.5
ЮВ 1 10 км мгла 8/8 450 м +2.8 0.0 82 -1 -1 978.9
В 1 10 км мгла 5/5 450 м +2.8 0.0 82 -1 -1 1001.9 978.9
В 1 11 км 8/8 480 м +2.8 0.0 82 0 0 978.9
В 1 11 км 8/8 480 м +2.8 0.0 82 -1 -1 1001.5 978.5
В 1 11 км 5/2 480 м
[Ac]
+3.3 0.0 79 -1 -1 978.5
В 1 13 км 2/2 480 м +3.3 0.0 79 -1 -1 1001.3 978.2 +2.8 +3.3
В 2 13 км 10/8 600 м
[Ac]
+3.3 0.0 79 -1 -1 978.2
В 2 14 км 10/8 600 м
[Ac]
+3.9 0.0 76 0 0 1001.1 978.2
В 1 14 км 10/8 600 м
[Ac]
+3.9 0.0 76 0 0 977.9
В 2 14 км 10/2 600 м
[Ac]
+3.3 0.0 79 -1 -1 1000.7 977.9
В 2 14 км 10/0 2700 м
[Ac]
+3.9 -0.6 72 0 0 1000.3 977.2
ЮВ 1
{4}
14 км 10/10 1140 м +3.9 -0.6 72 0 0 1000.4 977.6
ЮВ 2 14 км 10/10 1320 м +3.9 0.0 76 -1 -1 999.9 976.9
ЮВ 2 13 км слабый дождь 10/10 570 м +3.9 +0.6 79 0 0 1000.0 977.2 +3.3 +3.9
ЮВ 2 13 км слабый дождь 10/10 570 м +3.9 +0.6 79 0 0 977.2
В 1 13 км слабый дождь 10/10 600 м +3.3 +0.6 82 -1 -1 1000.3 977.6
В 1 10 км слабый дождь 10/10 600 м +3.3 +0.6 82 -1 -1 977.6
В 1 13 км слабый дождь 10/10 540 м +3.3 +0.6 82 -1 -1 1000.3 977.6
Местоположение метеостанции Cherry Capital Airport: широта 44.7367 долгота -85.5700 высота над уровнем моря 190 м.
В архиве по умолчанию представлена погода в Траверс-Сити за последние 1-2 суток. Обновление информации о фактической погоде в базе происходит ежечасно! Архивные данные за месяц целиком и за предыдущие месяцы Вы можете получить, выбрав интересующий диапазон дат из раскрывающегося списка и нажав кнопку "Ввод!".
Внимание! Архив погоды МЕТАР в базе сайта по станциям, не включенным в климатический монитор, хранится не более 60 дней. Нет смысла пытаться выбрать более раннюю дату.
*Определитесь, кто Вы:
Внимание! Время в таблицах - местное (без учета летнего времени). Для получения всемирного времени необходимо вычесть поправку, которая равна -5 ч.
Смотрите также архив погоды в соседних городах и на ближайших метеорологических станциях:
Партнеры нашего сайта:      
Пояснения к столбцам:
  • Ветер - указаны скорость ветра в м/с - средняя за 10 мин, порывы в срок и между сроками (в фигурных скобках) и направление, откуда дует ветер: С - северный,
  • СВ - северо-восточный, В - восточный, ЮВ - юго-восточный, Ю - южный, ЮЗ - юго-западный, З - западный, СЗ - северо-западный.
  • Видимость - горизонтальная дальность видимости в метрах или километрах. При видимости от 1 до 10 км при отсутствии осадков обычно наблюдается дымка, при ухудшении видимости до 1 км и менее - туман. В сухую погоду видимость может ухудшаться дымом, пылью или мглою.
  • Явления - указаны атмосферные явления, наблюдавшиеся в срок или в последний час перед сроком; фигурными скобками обозначены явления, наблюдавшиеся между сроками (за 1-3 часа до срока); квадратными скобками обозначены град или гололедные отложения с указанием их диаметра в мм.
  • Облачность - указаны через наклонную черту общая и нижняя облачность в баллах и высота нижней границы облаков в метрах; квадратными скобками обозначены формы облаков: Ci - перистые, Cs - перисто-слоистые, Cc - перисто-кучевые, Ac - высококучевые, As - высокослоистые, Sc - слоисто-кучевые, Ns - слоисто-дождевые, Cu - кучевые, Cb - кучево-дождевые. Подробнее классификацию облаков см. в Атласе облаков (PDF).
  • T - Температура воздуха - температура, измеренная на высоте 2 м над землей.
  • Td - Температура точки росы - температура, при понижении до которой содержащийся в воздухе водяной пар достигнет насыщения.
  • f - Относительная влажность воздуха - влажноcть воздуха, измеренная на высоте 2 м над землей.
  • Te - Эффективная температура - температура, которую ощущает одетый по сезону человек в тени. Характеристика душности погоды. При расчете учитывается влияние влажности воздуха и скорости ветра на теплоощущения человека.
  • Tes - Эффективная температура на солнце - температура, которую ощущает человек, с поправкой на солнечный нагрев. Характеристика знойности погоды. Зависит от высоты солнца над горизонтом, облачности и скорости ветра. Ночью, в пасмурную погоду, а также при ветре 12 м/с и более поправка равна нулю.
  • P - Атмосферное давление - приведенное к уровню моря атмосферное давление.
  • Po - Атмосферное давление - измеренное на уровне метеостанции атмосферное давление.
  • Tmin - Минимальная температура - минимум температуры воздуха на высоте 2 м над землей.
  • Tmax - Максимальная температура - максимум температуры воздуха на высоте 2 м над землей.
  • R - Количество осадков - Количество выпавших осадков за период времени, мм. При наведении курсора мыши на число - период времени, за который выпало указанное количество осадков.
  • R24 - Количество осадков - Количество выпавших осадков за 24 часа, мм.
  • S - Снежный покров - Высота снежного покрова, см. При наведении курсора мыши на число - состояние снежного покрова и степень покрытия местности в баллах.